owner,sensor,date,latitude,longitude,vertical_datum,sea_water_practical_salinity,qcFlag 
SCCF RECON,ioos:station:SCCF:18:1,2014-05-01T00:00:00Z,26.6955,-81.8138,1.86,2.21,1111122 
SCCF RECON,ioos:station:SCCF:18:1,2014-05-01T01:00:00Z,26.6955,-81.8138,1.82,2.24,1111122 
SCCF RECON,ioos:station:SCCF:18:1,2014-05-01T02:00:00Z,26.6955,-81.8138,1.79,2.09,1111122 
SCCF RECON,ioos:station:SCCF:18:1,2014-05-01T03:00:00Z,26.6955,-81.8138,1.74,2.07,1111122 
SCCF RECON,ioos:station:SCCF:18:1,2014-05-01T04:00:00Z,26.6955,-81.8138,1.69,2.01,1111122 
SCCF RECON,ioos:station:SCCF:18:1,2014-05-01T05:00:00Z,26.6955,-81.8138,1.62,1.95,1111122 
SCCF RECON,ioos:station:SCCF:18:1,2014-05-01T06:00:00Z,26.6955,-81.8138,1.57,1.88,1111122 
SCCF RECON,ioos:station:SCCF:18:1,2014-05-01T07:00:00Z,26.6955,-81.8138,1.54,1.89,1111122 
SCCF RECON,ioos:station:SCCF:18:1,2014-05-01T08:00:00Z,26.6955,-81.8138,1.52,2.1,1111122 
SCCF RECON,ioos:station:SCCF:18:1,2014-05-01T09:00:00Z,26.6955,-81.8138,1.51,2.03,1111122 
SCCF RECON,ioos:station:SCCF:18:1,2014-05-01T10:00:00Z,26.6955,-81.8138,1.54,2.09,1111122 
SCCF RECON,ioos:station:SCCF:18:1,2014-05-01T11:00:00Z,26.6955,-81.8138,1.57,2.04,1111122 
SCCF RECON,ioos:station:SCCF:18:1,2014-05-01T12:00:00Z,26.6955,-81.8138,1.58,2.08,1111122 
SCCF RECON,ioos:station:SCCF:18:1,2014-05-01T13:00:00Z,26.6955,-81.8138,1.58,1.91,1111122 
SCCF RECON,ioos:station:SCCF:18:1,2014-05-01T14:00:00Z,26.6955,-81.8138,1.6,1.78,1111122 
SCCF RECON,ioos:station:SCCF:18:1,2014-05-01T15:00:00Z,26.6955,-81.8138,1.611,1.79,1111122 
SCCF RECON,ioos:station:SCCF:18:1,2014-05-01T16:00:00Z,26.6955,-81.8138,1.63,1.79,1111122 
SCCF RECON,ioos:station:SCCF:18:1,2014-05-01T17:00:00Z,26.6955,-81.8138,1.64,1.88,1111122 
SCCF RECON,ioos:station:SCCF:18:1,2014-05-01T18:00:00Z,26.6955,-81.8138,1.67,2.26,1111122 
SCCF RECON,ioos:station:SCCF:18:1,2014-05-01T19:00:00Z,26.6955,-81.8138,1.7,2.44,1111122 
SCCF RECON,ioos:station:SCCF:18:1,2014-05-01T20:00:00Z,26.6955,-81.8138,1.74,2.57,1111122 
SCCF RECON,ioos:station:SCCF:18:1,2014-05-01T21:00:00Z,26.6955,-81.8138,1.79,2.74,1111122 
SCCF RECON,ioos:station:SCCF:18:1,2014-05-01T22:00:00Z,26.6955,-81.8138,1.84,2.96,1111122 
SCCF RECON,ioos:station:SCCF:18:1,2014-05-01T23:00:00Z,26.6955,-81.8138,1.87,3.03,1111122 
SCCF RECON,ioos:station:SCCF:18:1,2014-05-02T00:00:00Z,26.6955,-81.8138,1.88,2.43,1111122 
SCCF RECON,ioos:station:SCCF:18:1,2014-05-02T01:00:00Z,26.6955,-81.8138,1.88,2.18,1111122 
SCCF RECON,ioos:station:SCCF:18:1,2014-05-02T02:00:00Z,26.6955,-81.8138,1.85,2.04,1111122 
SCCF RECON,ioos:station:SCCF:18:1,2014-05-02T03:00:00Z,26.6955,-81.8138,1.84,1.92,1111122 
SCCF RECON,ioos:station:SCCF:18:1,2014-05-02T04:00:00Z,26.6955,-81.8138,1.79,1.85,1111122 
SCCF RECON,ioos:station:SCCF:18:1,2014-05-02T05:00:00Z,26.6955,-81.8138,1.74,1.77,1111122 
SCCF RECON,ioos:station:SCCF:18:1,2014-05-02T06:00:00Z,26.6955,-81.8138,1.7,1.73,1111122 
SCCF RECON,ioos:station:SCCF:18:1,2014-05-02T07:00:00Z,26.6955,-81.8138,1.65,1.72,1111122 
SCCF RECON,ioos:station:SCCF:18:1,2014-05-02T08:00:00Z,26.6955,-81.8138,1.57,1.88,1111122 
SCCF RECON,ioos:station:SCCF:18:1,2014-05-02T09:00:00Z,26.6955,-81.8138,1.56,1.8,1111122 
SCCF RECON,ioos:station:SCCF:18:1,2014-05-02T10:00:00Z,26.6955,-81.8138,1.56,1.89,1111122 
SCCF RECON,ioos:station:SCCF:18:1,2014-05-02T11:00:00Z,26.6955,-81.8138,1.59,1.94,1111122 
SCCF RECON,ioos:station:SCCF:18:1,2014-05-02T12:00:00Z,26.6955,-81.8138,1.61,1.91,1111122 
SCCF RECON,ioos:station:SCCF:18:1,2014-05-02T13:00:00Z,26.6955,-81.8138,1.62,1.85,1111122 
SCCF RECON,ioos:station:SCCF:18:1,2014-05-02T14:00:00Z,26.6955,-81.8138,1.63,1.77,1111122 
SCCF RECON,ioos:station:SCCF:18:1,2014-05-02T15:00:00Z,26.6955,-81.8138,1.63,1.7,1111122 
SCCF RECON,ioos:station:SCCF:18:1,2014-05-02T16:00:00Z,26.6955,-81.8138,1.66,1.74,1111122 
SCCF RECON,ioos:station:SCCF:18:1,2014-05-02T17:00:00Z,26.6955,-81.8138,1.665,1.87,1111122 
SCCF RECON,ioos:station:SCCF:18:1,2014-05-02T18:00:00Z,26.6955,-81.8138,1.68,2.07,1111122 
SCCF RECON,ioos:station:SCCF:18:1,2014-05-02T19:00:00Z,26.6955,-81.8138,1.71,2.36,1111122 
SCCF RECON,ioos:station:SCCF:18:1,2014-05-02T20:00:00Z,26.6955,-81.8138,1.74,2.48,1111122 
SCCF RECON,ioos:station:SCCF:18:1,2014-05-02T21:00:00Z,26.6955,-81.8138,1.79,2.5,1111122 
SCCF RECON,ioos:station:SCCF:18:1,2014-05-02T22:00:00Z,26.6955,-81.8138,1.83,2.54,1111122 
SCCF RECON,ioos:station:SCCF:18:1,2014-05-02T23:00:00Z,26.6955,-81.8138,1.87,2.71,1111122 
SCCF RECON,ioos:station:SCCF:18:1,2014-05-03T00:00:00Z,26.6955,-81.8138,1.9,2.64,1111122 
SCCF RECON,ioos:station:SCCF:18:1,2014-05-03T01:00:00Z,26.6955,-81.8138,1.93,2.19,1111122 
SCCF RECON,ioos:station:SCCF:18:1,2014-05-03T02:00:00Z,26.6955,-81.8138,1.92,2.03,1111122 
SCCF RECON,ioos:station:SCCF:18:1,2014-05-03T03:00:00Z,26.6955,-81.8138,1.91,1.85,1111122 
SCCF RECON,ioos:station:SCCF:18:1,2014-05-03T04:00:00Z,26.6955,-81.8138,1.89,1.71,1111122 
SCCF RECON,ioos:station:SCCF:18:1,2014-05-03T05:00:00Z,26.6955,-81.8138,1.83,1.67,1111122 
SCCF RECON,ioos:station:SCCF:18:1,2014-05-03T06:00:00Z,26.6955,-81.8138,1.78,1.62,1111122 
SCCF RECON,ioos:station:SCCF:18:1,2014-05-03T07:00:00Z,26.6955,-81.8138,1.73,1.6,1111122 
SCCF RECON,ioos:station:SCCF:18:1,2014-05-03T08:00:00Z,26.6955,-81.8138,1.69,1.58,1111122 
SCCF RECON,ioos:station:SCCF:18:1,2014-05-03T09:00:00Z,26.6955,-81.8138,1.64,1.73,1111122 
SCCF RECON,ioos:station:SCCF:18:1,2014-05-03T10:00:00Z,26.6955,-81.8138,1.62,1.7,1111122 
SCCF RECON,ioos:station:SCCF:18:1,2014-05-03T11:00:00Z,26.6955,-81.8138,1.62,1.67,1111122 
SCCF RECON,ioos:station:SCCF:18:1,2014-05-03T12:00:00Z,26.6955,-81.8138,1.64,1.67,1111122 
SCCF RECON,ioos:station:SCCF:18:1,2014-05-03T13:00:00Z,26.6955,-81.8138,1.66,1.69,1111122 
SCCF RECON,ioos:station:SCCF:18:1,2014-05-03T14:00:00Z,26.6955,-81.8138,1.67,1.62,1111122 
SCCF RECON,ioos:station:SCCF:18:1,2014-05-03T15:00:00Z,26.6955,-81.8138,1.67,1.57,1111122 
SCCF RECON,ioos:station:SCCF:18:1,2014-05-03T16:00:00Z,26.6955,-81.8138,1.69,1.55,1111122 
SCCF RECON,ioos:station:SCCF:18:1,2014-05-03T17:00:00Z,26.6955,-81.8138,1.7,1.51,1111122 
SCCF RECON,ioos:station:SCCF:18:1,2014-05-03T18:00:00Z,26.6955,-81.8138,1.7,1.91,1111122 
SCCF RECON,ioos:station:SCCF:18:1,2014-05-03T19:00:00Z,26.6955,-81.8138,1.71,2.06,1111122 
SCCF RECON,ioos:station:SCCF:18:1,2014-05-03T20:00:00Z,26.6955,-81.8138,1.74,2.05,1111122 
SCCF RECON,ioos:station:SCCF:18:1,2014-05-03T21:00:00Z,26.6955,-81.8138,1.78,2.26,1111122 
SCCF RECON,ioos:station:SCCF:18:1,2014-05-03T22:00:00Z,26.6955,-81.8138,1.805,2.34,1111122 
SCCF RECON,ioos:station:SCCF:18:1,2014-05-03T23:00:00Z,26.6955,-81.8138,1.85,2.26,1111122 
SCCF RECON,ioos:station:SCCF:18:1,2014-05-04T00:00:00Z,26.6955,-81.8138,1.89,2.15,1111122 
SCCF RECON,ioos:station:SCCF:18:1,2014-05-04T01:00:00Z,26.6955,-81.8138,1.94,1.69,1111122 
SCCF RECON,ioos:station:SCCF:18:1,2014-05-04T02:00:00Z,26.6955,-81.8138,1.95,1.6,1111122 
SCCF RECON,ioos:station:SCCF:18:1,2014-05-04T03:00:00Z,26.6955,-81.8138,1.92,1.52,1111122 
SCCF RECON,ioos:station:SCCF:18:1,2014-05-04T04:00:00Z,26.6955,-81.8138,1.9,1.58,1111122 
SCCF RECON,ioos:station:SCCF:18:1,2014-05-04T05:00:00Z,26.6955,-81.8138,1.87,1.43,1111122 
SCCF RECON,ioos:station:SCCF:18:1,2014-05-04T06:00:00Z,26.6955,-81.8138,1.8,1.44,1111122 
SCCF RECON,ioos:station:SCCF:18:1,2014-05-04T07:00:00Z,26.6955,-81.8138,1.73,1.41,1111122 
SCCF RECON,ioos:station:SCCF:18:1,2014-05-04T08:00:00Z,26.6955,-81.8138,1.66,1.34,1111122 
SCCF RECON,ioos:station:SCCF:18:1,2014-05-04T09:00:00Z,26.6955,-81.8138,1.63,1.27,1111122 
SCCF RECON,ioos:station:SCCF:18:1,2014-05-04T10:00:00Z,26.6955,-81.8138,1.6,1.25,1111122 
SCCF RECON,ioos:station:SCCF:18:1,2014-05-04T11:00:00Z,26.6955,-81.8138,1.58,1.27,1111122 
SCCF RECON,ioos:station:SCCF:18:1,2014-05-04T12:00:00Z,26.6955,-81.8138,1.56,1.3,1111122 
SCCF RECON,ioos:station:SCCF:18:1,2014-05-04T13:00:00Z,26.6955,-81.8138,1.56,1.26,1111122 
SCCF RECON,ioos:station:SCCF:18:1,2014-05-04T14:00:00Z,26.6955,-81.8138,1.55,1.31,1111122 
SCCF RECON,ioos:station:SCCF:18:1,2014-05-04T15:00:00Z,26.6955,-81.8138,1.52,1.22,1111122 
SCCF RECON,ioos:station:SCCF:18:1,2014-05-04T16:00:00Z,26.6955,-81.8138,1.52,1.22,1111122 
SCCF RECON,ioos:station:SCCF:18:1,2014-05-04T17:00:00Z,26.6955,-81.8138,1.5,1.26,1111122 
SCCF RECON,ioos:station:SCCF:18:1,2014-05-04T18:00:00Z,26.6955,-81.8138,1.48,1.17,1111122 
SCCF RECON,ioos:station:SCCF:18:1,2014-05-04T19:00:00Z,26.6955,-81.8138,1.47,1.19,1111122 
SCCF RECON,ioos:station:SCCF:18:1,2014-05-04T20:00:00Z,26.6955,-81.8138,1.442,1.33,1111122 
SCCF RECON,ioos:station:SCCF:18:1,2014-05-04T21:00:00Z,26.6955,-81.8138,1.44,1.59,1111122 
SCCF RECON,ioos:station:SCCF:18:1,2014-05-04T22:00:00Z,26.6955,-81.8138,1.46,1.57,1111122 
SCCF RECON,ioos:station:SCCF:18:1,2014-05-04T23:00:00Z,26.6955,-81.8138,1.48,1.53,1111122 
SCCF RECON,ioos:station:SCCF:18:1,2014-05-05T00:00:00Z,26.6955,-81.8138,1.49,1.65,1111122 
SCCF RECON,ioos:station:SCCF:18:1,2014-05-05T01:00:00Z,26.6955,-81.8138,1.51,1.56,1111122 
SCCF RECON,ioos:station:SCCF:18:1,2014-05-05T02:00:00Z,26.6955,-81.8138,1.52,1.4,1111122 
SCCF RECON,ioos:station:SCCF:18:1,2014-05-05T03:00:00Z,26.6955,-81.8138,1.53,1.15,1111122 
SCCF RECON,ioos:station:SCCF:18:1,2014-05-05T04:00:00Z,26.6955,-81.8138,1.51,1.14,1111122 
SCCF RECON,ioos:station:SCCF:18:1,2014-05-05T05:00:00Z,26.6955,-81.8138,1.48,1.14,1111122 
SCCF RECON,ioos:station:SCCF:18:1,2014-05-05T06:00:00Z,26.6955,-81.8138,1.47,1.11,1111122 
SCCF RECON,ioos:station:SCCF:18:1,2014-05-05T07:00:00Z,26.6955,-81.8138,1.45,1.09,1111122 
SCCF RECON,ioos:station:SCCF:18:1,2014-05-05T08:00:00Z,26.6955,-81.8138,1.41,1.09,1111122 
SCCF RECON,ioos:station:SCCF:18:1,2014-05-05T09:00:00Z,26.6955,-81.8138,1.39,1.09,1111122 
SCCF RECON,ioos:station:SCCF:18:1,2014-05-05T10:00:00Z,26.6955,-81.8138,1.37,1.45,1111122 
SCCF RECON,ioos:station:SCCF:18:1,2014-05-05T11:00:00Z,26.6955,-81.8138,1.36,1.45,1111122 
SCCF RECON,ioos:station:SCCF:18:1,2014-05-05T12:00:00Z,26.6955,-81.8138,1.35,1.38,1111122 
SCCF RECON,ioos:station:SCCF:18:1,2014-05-05T13:00:00Z,26.6955,-81.8138,1.37,1.41,1111122 
SCCF RECON,ioos:station:SCCF:18:1,2014-05-05T14:00:00Z,26.6955,-81.8138,1.39,1.47,1111122 
SCCF RECON,ioos:station:SCCF:18:1,2014-05-05T15:00:00Z,26.6955,-81.8138,1.44,1.36,1111122 
SCCF RECON,ioos:station:SCCF:18:1,2014-05-05T16:00:00Z,26.6955,-81.8138,1.5,1.29,1111122 
SCCF RECON,ioos:station:SCCF:18:1,2014-05-05T17:00:00Z,26.6955,-81.8138,1.53,1.13,1111122 
SCCF RECON,ioos:station:SCCF:18:1,2014-05-05T18:00:00Z,26.6955,-81.8138,1.55,1.13,1111122 
SCCF RECON,ioos:station:SCCF:18:1,2014-05-05T19:00:00Z,26.6955,-81.8138,1.59,1.15,1111122 
SCCF RECON,ioos:station:SCCF:18:1,2014-05-05T20:00:00Z,26.6955,-81.8138,1.59,1.34,1111122 
SCCF RECON,ioos:station:SCCF:18:1,2014-05-05T21:00:00Z,26.6955,-81.8138,1.59,1.36,1111122 
SCCF RECON,ioos:station:SCCF:18:1,2014-05-05T22:00:00Z,26.6955,-81.8138,1.6,1.56,1111122 
SCCF RECON,ioos:station:SCCF:18:1,2014-05-05T23:00:00Z,26.6955,-81.8138,1.64,1.18,1111122 
SCCF RECON,ioos:station:SCCF:18:1,2014-05-06T00:00:00Z,26.6955,-81.8138,1.65,1.33,1111122 
SCCF RECON,ioos:station:SCCF:18:1,2014-05-06T01:00:00Z,26.6955,-81.8138,1.66,1.3,1111122 
SCCF RECON,ioos:station:SCCF:18:1,2014-05-06T02:00:00Z,26.6955,-81.8138,1.66,1.26,1111122 
SCCF RECON,ioos:station:SCCF:18:1,2014-05-06T03:00:00Z,26.6955,-81.8138,1.67,1.11,1111122 
SCCF RECON,ioos:station:SCCF:18:1,2014-05-06T04:00:00Z,26.6955,-81.8138,1.66,1.11,1111122 
SCCF RECON,ioos:station:SCCF:18:1,2014-05-06T05:00:00Z,26.6955,-81.8138,1.627,1.09,1111122 
SCCF RECON,ioos:station:SCCF:18:1,2014-05-06T06:00:00Z,26.6955,-81.8138,1.61,1.07,1111122 
SCCF RECON,ioos:station:SCCF:18:1,2014-05-06T07:00:00Z,26.6955,-81.8138,1.55,1.04,1111122 
SCCF RECON,ioos:station:SCCF:18:1,2014-05-06T08:00:00Z,26.6955,-81.8138,1.53,1.04,1111122 
SCCF RECON,ioos:station:SCCF:18:1,2014-05-06T09:00:00Z,26.6955,-81.8138,1.49,1.05,1111122 
SCCF RECON,ioos:station:SCCF:18:1,2014-05-06T10:00:00Z,26.6955,-81.8138,1.46,1.11,1111122 
SCCF RECON,ioos:station:SCCF:18:1,2014-05-06T11:00:00Z,26.6955,-81.8138,1.44,1.48,1111122 
SCCF RECON,ioos:station:SCCF:18:1,2014-05-06T12:00:00Z,26.6955,-81.8138,1.42,1.18,1111122 
SCCF RECON,ioos:station:SCCF:18:1,2014-05-06T13:00:00Z,26.6955,-81.8138,1.45,1.54,1111122 
SCCF RECON,ioos:station:SCCF:18:1,2014-05-06T14:00:00Z,26.6955,-81.8138,1.47,1.79,1111122 
SCCF RECON,ioos:station:SCCF:18:1,2014-05-06T15:00:00Z,26.6955,-81.8138,1.5,1.82,1111122 
SCCF RECON,ioos:station:SCCF:18:1,2014-05-06T16:00:00Z,26.6955,-81.8138,1.54,1.53,1111122 
SCCF RECON,ioos:station:SCCF:18:1,2014-05-06T17:00:00Z,26.6955,-81.8138,1.6,1.39,1111122 
SCCF RECON,ioos:station:SCCF:18:1,2014-05-06T18:00:00Z,26.6955,-81.8138,1.65,1.07,1111122 
SCCF RECON,ioos:station:SCCF:18:1,2014-05-06T19:00:00Z,26.6955,-81.8138,1.66,1.07,1111122 
SCCF RECON,ioos:station:SCCF:18:1,2014-05-06T20:00:00Z,26.6955,-81.8138,1.71,1.07,1111122 
SCCF RECON,ioos:station:SCCF:18:1,2014-05-06T21:00:00Z,26.6955,-81.8138,1.68,1.3,1111122 
SCCF RECON,ioos:station:SCCF:18:1,2014-05-06T22:00:00Z,26.6955,-81.8138,1.67,1.7,1111122 
SCCF RECON,ioos:station:SCCF:18:1,2014-05-06T23:00:00Z,26.6955,-81.8138,1.7,1.51,1111122 
SCCF RECON,ioos:station:SCCF:18:1,2014-05-07T00:00:00Z,26.6955,-81.8138,1.69,1.75,1111122 
SCCF RECON,ioos:station:SCCF:18:1,2014-05-07T01:00:00Z,26.6955,-81.8138,1.7,1.7,1111122 
SCCF RECON,ioos:station:SCCF:18:1,2014-05-07T02:00:00Z,26.6955,-81.8138,1.71,1.71,1111122 
SCCF RECON,ioos:station:SCCF:18:1,2014-05-07T03:00:00Z,26.6955,-81.8138,1.7,1.27,1111122 
SCCF RECON,ioos:station:SCCF:18:1,2014-05-07T04:00:00Z,26.6955,-81.8138,1.7,1.1,1111122 
SCCF RECON,ioos:station:SCCF:18:1,2014-05-07T05:00:00Z,26.6955,-81.8138,1.71,1.1,1111122 
SCCF RECON,ioos:station:SCCF:18:1,2014-05-07T06:00:00Z,26.6955,-81.8138,1.66,1.09,1111122 
SCCF RECON,ioos:station:SCCF:18:1,2014-05-07T07:00:00Z,26.6955,-81.8138,1.62,1.06,1111122 
SCCF RECON,ioos:station:SCCF:18:1,2014-05-07T08:00:00Z,26.6955,-81.8138,1.57,1.04,1111122 
SCCF RECON,ioos:station:SCCF:18:1,2014-05-07T09:00:00Z,26.6955,-81.8138,1.54,1.01,1111122 
SCCF RECON,ioos:station:SCCF:18:1,2014-05-07T10:00:00Z,26.6955,-81.8138,1.5,1.0,1111122 
SCCF RECON,ioos:station:SCCF:18:1,2014-05-07T11:00:00Z,26.6955,-81.8138,1.49,1.13,1111122 
SCCF RECON,ioos:station:SCCF:18:1,2014-05-07T12:00:00Z,26.6955,-81.8138,1.477,1.7,1111122 
SCCF RECON,ioos:station:SCCF:18:1,2014-05-07T13:00:00Z,26.6955,-81.8138,1.48,1.32,1111122 
SCCF RECON,ioos:station:SCCF:18:1,2014-05-07T14:00:00Z,26.6955,-81.8138,1.52,1.83,1111122 
SCCF RECON,ioos:station:SCCF:18:1,2014-05-07T15:00:00Z,26.6955,-81.8138,1.54,1.58,1111122 
SCCF RECON,ioos:station:SCCF:18:1,2014-05-07T16:00:00Z,26.6955,-81.8138,1.58,1.65,1111122 
SCCF RECON,ioos:station:SCCF:18:1,2014-05-07T17:00:00Z,26.6955,-81.8138,1.63,1.46,1111122 
SCCF RECON,ioos:station:SCCF:18:1,2014-05-07T18:00:00Z,26.6955,-81.8138,1.697,1.16,1111122 
SCCF RECON,ioos:station:SCCF:18:1,2014-05-07T19:00:00Z,26.6955,-81.8138,1.7,1.13,1111122 
SCCF RECON,ioos:station:SCCF:18:1,2014-05-07T20:00:00Z,26.6955,-81.8138,1.72,1.3,1111122 
SCCF RECON,ioos:station:SCCF:18:1,2014-05-07T21:00:00Z,26.6955,-81.8138,1.72,1.32,1111122 
SCCF RECON,ioos:station:SCCF:18:1,2014-05-07T22:00:00Z,26.6955,-81.8138,1.7,1.28,1111122 
SCCF RECON,ioos:station:SCCF:18:1,2014-05-07T23:00:00Z,26.6955,-81.8138,1.67,1.82,1111122 
SCCF RECON,ioos:station:SCCF:18:1,2014-05-08T00:00:00Z,26.6955,-81.8138,1.65,1.56,1111122 
SCCF RECON,ioos:station:SCCF:18:1,2014-05-08T01:00:00Z,26.6955,-81.8138,1.64,1.67,1111122 
SCCF RECON,ioos:station:SCCF:18:1,2014-05-08T02:00:00Z,26.6955,-81.8138,1.65,1.43,1111122 
SCCF RECON,ioos:station:SCCF:18:1,2014-05-08T03:00:00Z,26.6955,-81.8138,1.67,1.17,1111122 
SCCF RECON,ioos:station:SCCF:18:1,2014-05-08T04:00:00Z,26.6955,-81.8138,1.65,1.17,1111122 
SCCF RECON,ioos:station:SCCF:18:1,2014-05-08T05:00:00Z,26.6955,-81.8138,1.67,1.36,1111122 
SCCF RECON,ioos:station:SCCF:18:1,2014-05-08T06:00:00Z,26.6955,-81.8138,1.69,1.52,1111122 
SCCF RECON,ioos:station:SCCF:18:1,2014-05-08T07:00:00Z,26.6955,-81.8138,1.69,1.46,1111122 
SCCF RECON,ioos:station:SCCF:18:1,2014-05-08T08:00:00Z,26.6955,-81.8138,1.627,1.38,1111122 
SCCF RECON,ioos:station:SCCF:18:1,2014-05-08T09:00:00Z,26.6955,-81.8138,1.55,1.3,1111122 
SCCF RECON,ioos:station:SCCF:18:1,2014-05-08T10:00:00Z,26.6955,-81.8138,1.53,1.28,1111122 
SCCF RECON,ioos:station:SCCF:18:1,2014-05-08T11:00:00Z,26.6955,-81.8138,1.49,1.31,1111122 
SCCF RECON,ioos:station:SCCF:18:1,2014-05-08T12:00:00Z,26.6955,-81.8138,1.475,1.59,1111122 
SCCF RECON,ioos:station:SCCF:18:1,2014-05-08T13:00:00Z,26.6955,-81.8138,1.45,1.43,1111122 
SCCF RECON,ioos:station:SCCF:18:1,2014-05-08T14:00:00Z,26.6955,-81.8138,1.48,1.69,1111122 
SCCF RECON,ioos:station:SCCF:18:1,2014-05-08T15:00:00Z,26.6955,-81.8138,1.51,1.84,1111122 
SCCF RECON,ioos:station:SCCF:18:1,2014-05-08T16:00:00Z,26.6955,-81.8138,1.55,2.27,1111122 
SCCF RECON,ioos:station:SCCF:18:1,2014-05-08T17:00:00Z,26.6955,-81.8138,1.58,2.38,1111122 
SCCF RECON,ioos:station:SCCF:18:1,2014-05-08T18:00:00Z,26.6955,-81.8138,1.61,1.29,1111122 
SCCF RECON,ioos:station:SCCF:18:1,2014-05-08T19:00:00Z,26.6955,-81.8138,1.655,1.49,1111122 
SCCF RECON,ioos:station:SCCF:18:1,2014-05-08T20:00:00Z,26.6955,-81.8138,1.7,1.82,1111122 
SCCF RECON,ioos:station:SCCF:18:1,2014-05-08T21:00:00Z,26.6955,-81.8138,1.71,2.22,1111122 
SCCF RECON,ioos:station:SCCF:18:1,2014-05-08T22:00:00Z,26.6955,-81.8138,1.69,1.98,1111122 
SCCF RECON,ioos:station:SCCF:18:1,2014-05-08T23:00:00Z,26.6955,-81.8138,1.66,1.89,1111122 
SCCF RECON,ioos:station:SCCF:18:1,2014-05-09T00:00:00Z,26.6955,-81.8138,1.65,2.04,1111122 
SCCF RECON,ioos:station:SCCF:18:1,2014-05-09T01:00:00Z,26.6955,-81.8138,1.59,2.2,1111122 
SCCF RECON,ioos:station:SCCF:18:1,2014-05-09T02:00:00Z,26.6955,-81.8138,1.59,2.04,1111122 
SCCF RECON,ioos:station:SCCF:18:1,2014-05-09T03:00:00Z,26.6955,-81.8138,1.61,2.79,1111122 
SCCF RECON,ioos:station:SCCF:18:1,2014-05-09T04:00:00Z,26.6955,-81.8138,1.64,3.14,1111122 
SCCF RECON,ioos:station:SCCF:18:1,2014-05-09T05:00:00Z,26.6955,-81.8138,1.64,1.83,1111122 
SCCF RECON,ioos:station:SCCF:18:1,2014-05-09T06:00:00Z,26.6955,-81.8138,1.651,2.07,1111122 
SCCF RECON,ioos:station:SCCF:18:1,2014-05-09T07:00:00Z,26.6955,-81.8138,1.69,2.4,1111122 
SCCF RECON,ioos:station:SCCF:18:1,2014-05-09T08:00:00Z,26.6955,-81.8138,1.72,2.39,1111122 
SCCF RECON,ioos:station:SCCF:18:1,2014-05-09T09:00:00Z,26.6955,-81.8138,1.69,2.29,1111122 
SCCF RECON,ioos:station:SCCF:18:1,2014-05-09T10:00:00Z,26.6955,-81.8138,1.64,2.36,1111122 
SCCF RECON,ioos:station:SCCF:18:1,2014-05-09T11:00:00Z,26.6955,-81.8138,1.59,2.0,1111122 
SCCF RECON,ioos:station:SCCF:18:1,2014-05-09T12:00:00Z,26.6955,-81.8138,1.54,1.97,1111122 
SCCF RECON,ioos:station:SCCF:18:1,2014-05-09T13:00:00Z,26.6955,-81.8138,1.524,2.28,1111122 
SCCF RECON,ioos:station:SCCF:18:1,2014-05-09T14:00:00Z,26.6955,-81.8138,1.49,2.13,1111122 
SCCF RECON,ioos:station:SCCF:18:1,2014-05-09T15:00:00Z,26.6955,-81.8138,1.524,2.54,1111122 
SCCF RECON,ioos:station:SCCF:18:1,2014-05-09T16:00:00Z,26.6955,-81.8138,1.59,2.67,1111122 
SCCF RECON,ioos:station:SCCF:18:1,2014-05-09T17:00:00Z,26.6955,-81.8138,1.61,2.82,1111122 
SCCF RECON,ioos:station:SCCF:18:1,2014-05-09T18:00:00Z,26.6955,-81.8138,1.67,2.09,1111122 
SCCF RECON,ioos:station:SCCF:18:1,2014-05-09T19:00:00Z,26.6955,-81.8138,1.67,2.11,1111122 
SCCF RECON,ioos:station:SCCF:18:1,2014-05-09T20:00:00Z,26.6955,-81.8138,1.74,2.71,1111122 
SCCF RECON,ioos:station:SCCF:18:1,2014-05-09T21:00:00Z,26.6955,-81.8138,1.77,3.17,1111122 
SCCF RECON,ioos:station:SCCF:18:1,2014-05-09T22:00:00Z,26.6955,-81.8138,1.76,2.99,1111122 
SCCF RECON,ioos:station:SCCF:18:1,2014-05-09T23:00:00Z,26.6955,-81.8138,1.71,2.81,1111122 
SCCF RECON,ioos:station:SCCF:18:1,2014-05-10T00:00:00Z,26.6955,-81.8138,1.66,2.74,1111122 
SCCF RECON,ioos:station:SCCF:18:1,2014-05-10T01:00:00Z,26.6955,-81.8138,1.63,3.15,1111122 
SCCF RECON,ioos:station:SCCF:18:1,2014-05-10T02:00:00Z,26.6955,-81.8138,1.59,2.73,1111122 
SCCF RECON,ioos:station:SCCF:18:1,2014-05-10T03:00:00Z,26.6955,-81.8138,1.58,3.22,1111122 
SCCF RECON,ioos:station:SCCF:18:1,2014-05-10T04:00:00Z,26.6955,-81.8138,1.63,3.38,1111122 
SCCF RECON,ioos:station:SCCF:18:1,2014-05-10T05:00:00Z,26.6955,-81.8138,1.63,3.38,1111122 
SCCF RECON,ioos:station:SCCF:18:1,2014-05-10T06:00:00Z,26.6955,-81.8138,1.64,3.06,1111122 
SCCF RECON,ioos:station:SCCF:18:1,2014-05-10T07:00:00Z,26.6955,-81.8138,1.65,3.2,1111122 
SCCF RECON,ioos:station:SCCF:18:1,2014-05-10T08:00:00Z,26.6955,-81.8138,1.67,3.4,1111122 
SCCF RECON,ioos:station:SCCF:18:1,2014-05-10T09:00:00Z,26.6955,-81.8138,1.72,3.59,1111122 
SCCF RECON,ioos:station:SCCF:18:1,2014-05-10T10:00:00Z,26.6955,-81.8138,1.67,3.59,1111122 
SCCF RECON,ioos:station:SCCF:18:1,2014-05-10T11:00:00Z,26.6955,-81.8138,1.6,3.26,1111122 
SCCF RECON,ioos:station:SCCF:18:1,2014-05-10T12:00:00Z,26.6955,-81.8138,1.56,3.25,1111122 
SCCF RECON,ioos:station:SCCF:18:1,2014-05-10T13:00:00Z,26.6955,-81.8138,1.56,3.41,1111122 
SCCF RECON,ioos:station:SCCF:18:1,2014-05-10T14:00:00Z,26.6955,-81.8138,1.53,3.56,1111122 
SCCF RECON,ioos:station:SCCF:18:1,2014-05-10T15:00:00Z,26.6955,-81.8138,1.55,3.43,1111122 
SCCF RECON,ioos:station:SCCF:18:1,2014-05-10T16:00:00Z,26.6955,-81.8138,1.61,3.49,1111122 
SCCF RECON,ioos:station:SCCF:18:1,2014-05-10T17:00:00Z,26.6955,-81.8138,1.65,4.01,1111122 
SCCF RECON,ioos:station:SCCF:18:1,2014-05-10T18:00:00Z,26.6955,-81.8138,1.71,3.92,1111122 
SCCF RECON,ioos:station:SCCF:18:1,2014-05-10T19:00:00Z,26.6955,-81.8138,1.74,3.67,1111122 
SCCF RECON,ioos:station:SCCF:18:1,2014-05-10T20:00:00Z,26.6955,-81.8138,1.8,3.6,1111122 
SCCF RECON,ioos:station:SCCF:18:1,2014-05-10T21:00:00Z,26.6955,-81.8138,1.76,4.88,1111122 
SCCF RECON,ioos:station:SCCF:18:1,2014-05-10T22:00:00Z,26.6955,-81.8138,1.78,4.41,1111122 
SCCF RECON,ioos:station:SCCF:18:1,2014-05-10T23:00:00Z,26.6955,-81.8138,1.79,4.78,1111122 
SCCF RECON,ioos:station:SCCF:18:1,2014-05-11T00:00:00Z,26.6955,-81.8138,1.76,3.99,1111122 
SCCF RECON,ioos:station:SCCF:18:1,2014-05-11T01:00:00Z,26.6955,-81.8138,1.67,4.49,1111122 
SCCF RECON,ioos:station:SCCF:18:1,2014-05-11T02:00:00Z,26.6955,-81.8138,1.649,4.29,1111122 
SCCF RECON,ioos:station:SCCF:18:1,2014-05-11T03:00:00Z,26.6955,-81.8138,1.65,3.91,1111122 
SCCF RECON,ioos:station:SCCF:18:1,2014-05-11T04:00:00Z,26.6955,-81.8138,1.65,4.0,1111122 
SCCF RECON,ioos:station:SCCF:18:1,2014-05-11T05:00:00Z,26.6955,-81.8138,1.67,3.97,1111122 
SCCF RECON,ioos:station:SCCF:18:1,2014-05-11T06:00:00Z,26.6955,-81.8138,1.69,4.36,1111122 
SCCF RECON,ioos:station:SCCF:18:1,2014-05-11T07:00:00Z,26.6955,-81.8138,1.72,3.96,1111122 
SCCF RECON,ioos:station:SCCF:18:1,2014-05-11T08:00:00Z,26.6955,-81.8138,1.74,3.57,1111122 
SCCF RECON,ioos:station:SCCF:18:1,2014-05-11T09:00:00Z,26.6955,-81.8138,1.73,3.87,1111122 
SCCF RECON,ioos:station:SCCF:18:1,2014-05-11T10:00:00Z,26.6955,-81.8138,1.75,3.96,1111122 
SCCF RECON,ioos:station:SCCF:18:1,2014-05-11T11:00:00Z,26.6955,-81.8138,1.721,4.03,1111122 
SCCF RECON,ioos:station:SCCF:18:1,2014-05-11T12:00:00Z,26.6955,-81.8138,1.69,3.99,1111122 
SCCF RECON,ioos:station:SCCF:18:1,2014-05-11T13:00:00Z,26.6955,-81.8138,1.64,3.66,1111122 
SCCF RECON,ioos:station:SCCF:18:1,2014-05-11T14:00:00Z,26.6955,-81.8138,1.64,3.72,1111122 
SCCF RECON,ioos:station:SCCF:18:1,2014-05-11T15:00:00Z,26.6955,-81.8138,1.61,4.42,1111122 
SCCF RECON,ioos:station:SCCF:18:1,2014-05-11T16:00:00Z,26.6955,-81.8138,1.63,3.96,1111122 
SCCF RECON,ioos:station:SCCF:18:1,2014-05-11T17:00:00Z,26.6955,-81.8138,1.67,4.28,1111122 
SCCF RECON,ioos:station:SCCF:18:1,2014-05-11T18:00:00Z,26.6955,-81.8138,1.71,4.52,1111122 
SCCF RECON,ioos:station:SCCF:18:1,2014-05-11T19:00:00Z,26.6955,-81.8138,1.75,4.09,1111122 
SCCF RECON,ioos:station:SCCF:18:1,2014-05-11T20:00:00Z,26.6955,-81.8138,1.8,3.94,1111122 
SCCF RECON,ioos:station:SCCF:18:1,2014-05-11T21:00:00Z,26.6955,-81.8138,1.8,4.14,1111122 
SCCF RECON,ioos:station:SCCF:18:1,2014-05-11T22:00:00Z,26.6955,-81.8138,1.8,4.45,1111122 